Rbgn^[z[y[W
メイン
   新天体発見情報
     Comet P/2008 QP20 = 2021 M1 (LINEAR-Hill)
投稿するにはまず登録を

フラット表示 前のトピック | 次のトピック
投稿者 スレッド
佐藤裕久
投稿日時: 2021-9-27 13:48
モデレータ
登録日: 2005-6-12
居住地: 日本
投稿: 2620
オンライン
Comet P/2008 QP20 = 2021 M1 (LINEAR-Hill)

R. Weryk (西オンタリオ大学,物理および天文学科)は、8月17(日)、ハワイ Haleakalaの Pan-STARRS1 
1.8-m Ritchey-Chretien 反射望遠鏡で得た画像から3度目の出現となるP/2008 QP20を検出した (2016
年の検出はCBET 4832を参照)。1".3のシーイングで得た4枚の45秒w-バンドサーベイ画像から、1".5-
1".6(半値全幅:FWHM)の非常に集光したコマが見え、p.a. 240°に2"のまっすぐな尾が見えた。
Werykは、また2021年 Pan-STARRS1画像からたくさんこの彗星を確認した。

NK 2300とICQ's 2014 Comet Handbookの中野主一氏の予報に対し2016年の出現(CBET 4832)では、Delta(T) 
= +0.03 dayであった。CBET 4832の予報に対し今回帰は、Delta(T)= +0.01 dayであった。
MPC 75709の予報に対して、Delta(T)は、-0.04 dayであった。
彗星年表2021の佐藤裕久の参考軌道要素(2016年3月1日までの観測を加味)の修正値は、Delta(T) = 0.00 
dayであった。

検出位置は次のとおり、

     2021 UT             R.A. (2000) Decl.       Mag.
     June 18.58966   22 57 30.23   - 7 10 07.5   22.9
     July 13.47929   23 12 58.28   - 4 11 53.8   22.1
          20.52460   23 15 04.48   - 3 28 32.5   22.8
          31.57186   23 15 55.71   - 2 28 56.4   22.3
          31.58366   23 15 55.66   - 2 28 53.2   22.1
     Aug.  4.48849   23 15 27.77   - 2 10 37.2   21.9
           4.50051   23 15 27.61   - 2 10 34.0   21.5
           4.51252   23 15 27.46   - 2 10 30.8   21.7
           4.52454   23 15 27.29   - 2 10 27.6   21.6
          12.49816   23 13 12.07   - 1 38 16.1   21.7
          12.51066   23 13 11.75   - 1 38 13.0   21.5
          12.52316   23 13 11.43   - 1 38 10.4   21.7
          17.50449   23 10 55.70   - 1 21 38.1   21.4
          17.51643   23 10 55.29   - 1 21 36.0   21.3
          17.52832   23 10 54.89   - 1 21 33.8   21.2
          17.54026   23 10 54.48   - 1 21 31.6   21.5

MPCの連結軌道要素と位置推算表は次のとおり、

Orbital elements:
    P/2008 QP20 (LINEAR-Hill)                                                   
Epoch 2008 Oct. 21.0 TT = JDT 2454760.5                                         
T 2008 Nov. 2.69161 TT                                  Rudenko                 
q   1.7231392            (2000.0)            P               Q                  
n   0.15114776     Peri.   72.03392     +0.79169777     -0.60603467             
a   3.4903441      Node   325.15355     +0.49698292     +0.71225653             
e   0.5063125      Incl.    7.74984     +0.35527823     +0.35413644             
P   6.52                                                                        
From 538 observations 2008 Aug. 25-2021 Aug. 17, mean residual 0".8.            
                                                                                
    P/2008 QP20 (LINEAR-Hill)                                                   
Epoch 2015 May 18.0 TT = JDT 2457160.5                                          
T 2015 May 17.27652 TT                                  Rudenko                 
q   1.7233813            (2000.0)            P               Q                  
n   0.15108080     Peri.   72.34865     +0.79030753     -0.60781123             
a   3.4913753      Node   324.96837     +0.49861324     +0.71134294             
e   0.5063890      Incl.    7.74184     +0.35608825     +0.35292597             
P   6.52                                                                        
From 538 observations 2008 Aug. 25-2021 Aug. 17, mean residual 0".8.            
                                                                                
    P/2008 QP20 (LINEAR-Hill)                                                   
Epoch 2022 Jan. 21.0 TT = JDT 2459600.5                                         
T 2022 Jan. 2.13422 TT                                  Rudenko                 
q   1.8062208            (2000.0)            P               Q                  
n   0.14730822     Peri.   75.53411     +0.78708137     -0.61157906             
a   3.5507333      Node   322.07403     +0.50344934     +0.71226851             
e   0.4913105      Incl.    7.52200     +0.35642905     +0.34444829             
P   6.69                                                                        
From 538 observations 2008 Aug. 25-2021 Aug. 17, mean residual 0".8.            
                                                                                
    P/2008 QP20 (LINEAR-Hill)                                                   
Epoch 2028 Sept. 26.0 TT = JDT 2462040.5                                        
T 2028 Sept. 16.95867 TT                                Rudenko                 
q   1.8148297            (2000.0)            P               Q                  
n   0.14681227     Peri.   75.68192     +0.78638620     -0.61246550             
a   3.5587254      Node   321.99137     +0.50431791     +0.71179753             
e   0.4900338      Incl.    7.51315     +0.35673546     +0.34384632             
P   6.71                                                                        
From 538 observations 2008 Aug. 25-2021 Aug. 17, mean residual 0".8.            
                                                                                
    P/2008 QP20 (LINEAR-Hill)                                                   
Epoch 2021 July 5.0 TT = JDT 2459400.5                                          
T 2022 Jan. 2.09387 TT                                  Rudenko                 
q   1.8061388            (2000.0)            P               Q                  
n   0.14714275     Peri.   75.52179     +0.78719026     -0.61143855             
a   3.5533949      Node   322.07610     +0.50331717     +0.71235520             
e   0.4917146      Incl.    7.52261     +0.35637526     +0.34451848             
P   6.70                                                                        
From 538 observations 2008 Aug. 25-2021 Aug. 17, mean residual 0".8.            
                                                                                
Ephemeris:
Date    TT    R. A. (2000) Decl.     Delta      r    Elong.  Phase   m1
2021 07 29    23 16 00.8 -02 41 46   1.4027  2.2539   137.0    17.9  19.8
...
2021 08 13    23 13 00.1 -01 36 26   1.2400  2.1844   151.5    12.8  19.4
...
2021 08 21    23 08 58.8 -01 11 36   1.1709  2.1486   159.7     9.4  19.2
...
2021 08 27    23 05 00.8 -00 57 32   1.1280  2.1224   165.9     6.6  19.0
2021 08 28    23 04 17.0 -00 55 33   1.1217  2.1181   167.0     6.2  19.0
2021 08 29    23 03 32.2 -00 53 41   1.1155  2.1138   168.0     5.7  19.0
...
2021 09 04    22 58 45.6 -00 44 27   1.0836  2.0885   173.2     3.3  18.9
...
2021 09 12    22 51 56.8 -00 36 38   1.0543  2.0559   172.1     3.9  18.7
...
2021 09 27    22 40 12.9 -00 28 14   1.0390  1.9986   156.5    11.5  18.6

(MPEC 2021-Q68、CBET 5040、oaa-comet 2214)

フラット表示 前のトピック | 次のトピック

題名 投稿者 日時
 » Comet P/2008 QP20 = 2021 M1 (LINEAR-Hill) 佐藤裕久 2021-9-27 13:48

投稿するにはまず登録を
 
© 1999 Tsutomu Seki.